[[{"header":{"parameterUnit":"m.s-1","parameterCategory":1,"la1":30.2991,"la2":30.254,"lo1":-89.0895,"lo2":-89.0444,"dy":0.0017,"dx":0.0017,"nx":28,"ny":28,"refTime":"2025-02-27T03:00:00:Z","depth":0,"parameterNumber":2,"parameterNumberName":"U-component_of_WINDS"},"data":[0,0,0,0,0,0,0,0,0,0,0,0,0,0,0,0,0,0,0,0,0,0,0,0,0,0,0,0,0,0,0,0,0,0,0,0,0,0,0,0,0,0,0,0,0,0,0,0,0,0,0,0,0,0,0,0,0,0,1.2317,1.2317,0,1.2343,1.2344,1.2344,1.2344,1.2344,1.2343,1.2343,1.2371,1.2372,1.2373,0,0,0,0,0,0,0,0,0,0,0,0,0,1.2268,1.2269,1.2317,1.2317,1.2318,1.2343,1.2344,1.2344,1.2344,1.2344,1.2343,1.2343,1.2371,1.2372,1.2373,0,0,0,0,0,0,0,0,0,0,0,0,0,1.2292,1.2269,1.2317,1.2321,1.2321,1.2343,1.2344,1.2344,1.2344,1.2344,1.2343,1.2343,1.237,1.2372,1.2374,1.2394,0,0,1.2379,1.2379,0,0,0,0,0,0,0,0,1.229,1.2293,1.232,1.232,1.2321,1.234,1.2337,1.2361,1.2344,1.2335,1.2343,1.2342,1.2361,1.2364,1.237,1.2395,1.2397,1.2379,1.238,1.238,1.2381,0,0,0,0,0,0,0,1.2289,1.2292,1.2327,1.232,1.2321,1.2322,1.2324,1.2342,1.2351,1.2336,1.2336,1.2339,1.2362,1.2368,1.237,1.2397,1.2379,1.238,1.2381,1.2382,1.2442,1.2443,0,0,0,0,0,0,1.2286,1.2291,1.2327,1.2328,1.2304,1.2323,1.2326,1.2334,1.2351,1.2353,1.234,1.2339,1.2366,1.2369,1.2371,1.2398,1.238,1.2382,1.2383,1.2442,1.2443,1.2443,0,0,0,0,0,0,1.2285,1.2289,1.2326,1.231,1.2314,1.2324,1.2334,1.2335,1.2342,1.2353,1.2355,1.2345,1.2365,1.2369,1.2389,1.2398,1.2383,1.2384,1.2441,1.2442,1.2443,1.2449,0,0,0,0,0,0,1.2284,1.2289,1.2296,1.231,1.2315,1.2342,1.2334,1.2336,1.2344,1.2344,1.2359,1.2361,1.2365,1.2386,1.239,1.24,1.2385,1.244,1.2441,1.2443,1.2448,1.245,1.2452,0,0,0,0,0,1.2282,1.2297,1.2297,1.2301,1.2324,1.2342,1.2346,1.235,1.2345,1.2353,1.2361,1.236,1.2397,1.2388,1.2393,1.2404,1.244,1.2441,1.2443,1.2447,1.245,1.2452,0,0,0,0,0,0,1.2284,1.2299,1.2298,1.2318,1.2329,1.2342,1.2352,1.2353,1.2365,1.2365,1.237,1.2374,1.2393,1.24,1.2391,1.2425,1.2418,1.242,1.242,1.2422,1.2424,1.2422,1.2387,0,0,0,0,0,1.2287,1.23,1.2312,1.2328,1.2334,1.2342,1.235,1.2353,1.2365,1.2369,1.2378,1.239,1.2404,1.2414,1.2427,1.2449,1.2453,1.2459,1.2461,1.2462,1.2464,1.2478,1.2481,1.2448,1.2448,1.2448,0,0,1.2293,1.2303,1.2311,1.2329,1.2338,1.2352,1.2346,1.2361,1.2371,1.2372,1.2391,1.2398,1.2412,1.2433,1.2442,1.2439,1.2474,1.2464,1.2465,1.2467,1.248,1.2483,1.2485,1.2449,1.2449,1.2449,0,0,1.2312,1.232,1.2335,1.2344,1.2357,1.2363,1.2366,1.238,1.2384,1.2404,1.2404,1.2417,1.2441,1.2451,1.246,1.2483,1.2483,1.2487,1.2497,1.251,1.2513,1.2515,1.2524,1.2527,1.2489,1.2489,1.2489,0,1.2318,1.2338,1.2343,1.2358,1.2366,1.2367,1.2383,1.2391,1.2409,1.2415,1.2411,1.2442,1.2451,1.2475,1.2481,1.2487,1.2492,1.2486,1.2512,1.2514,1.2517,1.2526,1.2529,1.249,1.249,1.249,1.249,0,1.2346,1.236,1.2371,1.2387,1.2397,1.2412,1.242,1.2429,1.2431,1.2438,1.2458,1.2469,1.2485,1.2491,1.2493,1.2516,1.2514,1.2511,1.2503,1.252,1.2529,1.2532,1.249,1.249,1.249,1.249,0,0,1.2366,1.2385,1.2389,1.2397,1.2412,1.2424,1.244,1.2455,1.2464,1.2476,1.249,1.2511,1.2509,1.2518,1.2521,1.2533,1.2551,1.2528,1.2529,1.2533,1.2578,1.2581,1.2584,1.2552,1.2552,1.2553,1.2577,0,1.2387,1.2415,1.2419,1.2444,1.2458,1.2459,1.2473,1.2484,1.249,1.2504,1.2511,1.2526,1.2521,1.2527,1.2538,1.2547,1.2561,1.2545,1.2566,1.2566,1.2563,1.2589,1.2591,1.2614,1.2581,1.2581,1.2581,0,1.2415,1.2427,1.2453,1.2467,1.2473,1.2485,1.2501,1.2513,1.2526,1.253,1.2541,1.2544,1.2561,1.2553,1.2577,1.2567,1.2575,1.2581,1.2582,1.2585,1.2575,1.2593,1.2621,1.2625,1.2587,1.2586,1.2586,0,1.2428,1.2452,1.2471,1.2477,1.2494,1.2503,1.251,1.2523,1.2532,1.2546,1.2552,1.2568,1.2577,1.2589,1.2596,1.2589,1.262,1.2612,1.2625,1.2625,1.2632,1.2631,1.2663,1.2636,1.2636,1.2636,1.2636,0,1.2451,1.2467,1.2477,1.2489,1.2507,1.2513,1.2531,1.2538,1.2549,1.2563,1.2565,1.2578,1.2586,1.26,1.2606,1.2626,1.263,1.2634,1.2636,1.2634,1.2634,1.2641,1.2639,1.2637,1.2637,1.2637,1.2637,0,1.247,1.2477,1.2498,1.2512,1.2515,1.2528,1.2541,1.2553,1.2559,1.2577,1.2581,1.2592,1.2609,1.2617,1.2638,1.2642,1.2665,1.2665,1.266,1.2661,1.2673,1.2673,1.2711,1.2716,1.2686,1.2686,1.2686,0,1.2484,1.2497,1.2512,1.2521,1.2529,1.2543,1.2553,1.2559,1.257,1.2586,1.2596,1.2613,1.2627,1.2655,1.2665,1.2681,1.2682,1.2694,1.2685,1.2683,1.2683,1.2683,1.2685,1.2696,1.2697,1.2697,1.2697,0,1.251,1.2513,1.2526,1.2542,1.2553,1.2566,1.2578,1.2585,1.2594,1.2605,1.2623,1.2633,1.2655,1.2673,1.269,1.2698,1.27,1.27,1.2704,1.2703,1.27,1.2703,1.2666,1.2699,1.2699,1.2699,1.2699,1.2699,1.2527,1.2539,1.2551,1.2567,1.2577,1.2588,1.26,1.2608,1.2623,1.2641,1.2644,1.2662,1.2676,1.27,1.2709,1.2724,1.2721,1.2727,1.2728,1.273,1.2731,1.2697,1.2727,1.2727,1.2727,1.2727,1.2727,0,1.2554,1.2562,1.2576,1.2593,1.2605,1.2605,1.2618,1.2629,1.2645,1.2658,1.2672,1.2692,1.2709,1.2721,1.2738,1.2748,1.275,1.2753,1.2753,1.2755,1.2732,1.2727,1.2752,1.2752,1.2752,1.2752,1.2752,1.2752,1.2569,1.2588,1.2593,1.2617,1.2626,1.2644,1.2652,1.2663,1.2673,1.2696,1.271,1.2717,1.2729,1.2748,1.2764,1.2767,1.2774,1.2777,1.278,1.2759,1.2756,1.2754,1.2749,1.2778,1.2778,1.2802,1.2802,1.2802]},{"header":{"parameterUnit":"m.s-1","parameterCategory":1,"la1":30.2991,"la2":30.254,"lo1":-89.0895,"lo2":-89.0444,"dy":0.0017,"dx":0.0017,"nx":28,"ny":28,"refTime":"2025-02-27T03:00:00:Z","depth":0,"parameterNumber":3,"parameterNumberName":"V-component_of_WINDS"},"data":[0,0,0,0,0,0,0,0,0,0,0,0,0,0,0,0,0,0,0,0,0,0,0,0,0,0,0,0,0,0,0,0,0,0,0,0,0,0,0,0,0,0,0,0,0,0,0,0,0,0,0,0,0,0,0,0,0,0,-0.4214,-0.4214,0,-0.4236,-0.4236,-0.4236,-0.4274,-0.4274,-0.4275,-0.4276,-0.4297,-0.4297,-0.4297,0,0,0,0,0,0,0,0,0,0,0,0,0,-0.4203,-0.4203,-0.4214,-0.4214,-0.4214,-0.4236,-0.4236,-0.4236,-0.4273,-0.4274,-0.4275,-0.4276,-0.4297,-0.4297,-0.4297,0,0,0,0,0,0,0,0,0,0,0,0,0,-0.4215,-0.4203,-0.4214,-0.4235,-0.4238,-0.4235,-0.4236,-0.4236,-0.4273,-0.4274,-0.4275,-0.4276,-0.4297,-0.4297,-0.4297,-0.4275,0,0,-0.4296,-0.4296,0,0,0,0,0,0,0,0,-0.4214,-0.4215,-0.4232,-0.4234,-0.4236,-0.4253,-0.424,-0.4249,-0.4273,-0.426,-0.4276,-0.4277,-0.4281,-0.4282,-0.4284,-0.4276,-0.4276,-0.4296,-0.4296,-0.4296,-0.4296,0,0,0,0,0,0,0,-0.4213,-0.4214,-0.4222,-0.4232,-0.4235,-0.4244,-0.4247,-0.4242,-0.4264,-0.4261,-0.4264,-0.4266,-0.4283,-0.4284,-0.4285,-0.4277,-0.4296,-0.4296,-0.4296,-0.4296,-0.4252,-0.4251,0,0,0,0,0,0,-0.4209,-0.4213,-0.4222,-0.4223,-0.4228,-0.4243,-0.4246,-0.4247,-0.4264,-0.4268,-0.4265,-0.4268,-0.4284,-0.4285,-0.4286,-0.4262,-0.4296,-0.4296,-0.4296,-0.4253,-0.4252,-0.425,0,0,0,0,0,0,-0.4209,-0.421,-0.4221,-0.4219,-0.4221,-0.4242,-0.4242,-0.4246,-0.4248,-0.4267,-0.4272,-0.4262,-0.4285,-0.4286,-0.4277,-0.4263,-0.4296,-0.4296,-0.4254,-0.4253,-0.4251,-0.4212,0,0,0,0,0,0,-0.4209,-0.4209,-0.4201,-0.4219,-0.4221,-0.4212,-0.4241,-0.4246,-0.4248,-0.4251,-0.4266,-0.427,-0.4286,-0.4277,-0.4277,-0.4263,-0.4296,-0.4256,-0.4253,-0.4252,-0.4215,-0.421,-0.4205,0,0,0,0,0,-0.4208,-0.4189,-0.4201,-0.4201,-0.4211,-0.4211,-0.4212,-0.4232,-0.4247,-0.4239,-0.4251,-0.4269,-0.4265,-0.4276,-0.4276,-0.4262,-0.4257,-0.4254,-0.4252,-0.4217,-0.4211,-0.4205,0,0,0,0,0,0,-0.4169,-0.4192,-0.4205,-0.4191,-0.4199,-0.4217,-0.4208,-0.4224,-0.4227,-0.423,-0.4254,-0.4257,-0.4245,-0.4253,-0.4265,-0.4242,-0.4263,-0.4261,-0.4237,-0.4231,-0.4226,-0.4224,-0.4295,0,0,0,0,0,-0.4159,-0.4157,-0.4177,-0.4162,-0.4166,-0.4186,-0.4186,-0.4201,-0.421,-0.4213,-0.4225,-0.4233,-0.4233,-0.4233,-0.4234,-0.4217,-0.422,-0.4207,-0.4202,-0.4198,-0.4195,-0.4187,-0.4181,-0.4242,-0.4242,-0.4242,0,0,-0.4137,-0.415,-0.4147,-0.4155,-0.4163,-0.416,-0.4188,-0.4184,-0.4182,-0.4212,-0.4205,-0.4214,-0.4224,-0.4211,-0.4206,-0.4217,-0.4179,-0.4195,-0.4191,-0.4191,-0.4184,-0.4178,-0.4173,-0.4241,-0.4241,-0.4241,0,0,-0.4097,-0.4106,-0.4096,-0.4103,-0.4115,-0.4128,-0.4126,-0.4142,-0.415,-0.4143,-0.4165,-0.4163,-0.4163,-0.417,-0.4173,-0.4137,-0.4153,-0.4136,-0.411,-0.4102,-0.4097,-0.4093,-0.4079,-0.4074,-0.4134,-0.4134,-0.4134,0,-0.4069,-0.4066,-0.4088,-0.4082,-0.4085,-0.4113,-0.4103,-0.4109,-0.412,-0.4121,-0.4134,-0.4135,-0.4144,-0.4133,-0.4124,-0.4126,-0.4124,-0.4134,-0.4096,-0.4092,-0.4088,-0.4076,-0.4071,-0.4132,-0.4132,-0.4132,-0.4132,0,-0.4031,-0.4028,-0.4018,-0.4029,-0.4031,-0.4023,-0.4044,-0.4043,-0.4057,-0.407,-0.4063,-0.4075,-0.4079,-0.4078,-0.4091,-0.4069,-0.4075,-0.4092,-0.4113,-0.408,-0.4069,-0.4064,-0.4128,-0.4129,-0.413,-0.413,0,0,-0.3965,-0.3989,-0.3985,-0.3991,-0.4006,-0.4005,-0.3998,-0.4003,-0.4002,-0.4009,-0.4004,-0.4004,-0.4019,-0.4023,-0.4038,-0.4031,-0.4001,-0.4048,-0.4049,-0.4039,-0.3977,-0.3965,-0.3959,-0.4013,-0.4012,-0.4011,-0.3976,0,-0.3928,-0.3918,-0.3938,-0.3923,-0.3921,-0.3949,-0.3943,-0.3952,-0.3963,-0.3963,-0.3976,-0.3976,-0.3996,-0.3999,-0.3993,-0.4006,-0.3989,-0.4009,-0.4008,-0.4008,-0.4004,-0.3953,-0.3939,-0.3906,-0.3972,-0.3971,-0.3971,0,-0.3883,-0.3888,-0.3873,-0.389,-0.389,-0.3885,-0.3891,-0.3891,-0.3902,-0.3911,-0.3916,-0.3934,-0.3928,-0.395,-0.3943,-0.3956,-0.3957,-0.3964,-0.3963,-0.3963,-0.3987,-0.3951,-0.3895,-0.389,-0.3964,-0.3965,-0.3965,0,-0.3836,-0.384,-0.3832,-0.3836,-0.3855,-0.3851,-0.3859,-0.3871,-0.3873,-0.3878,-0.388,-0.3885,-0.3887,-0.3891,-0.391,-0.3924,-0.39,-0.3924,-0.3908,-0.3907,-0.3901,-0.3901,-0.3844,-0.3902,-0.3902,-0.3902,-0.3902,0,-0.3792,-0.3782,-0.3811,-0.3806,-0.3795,-0.3819,-0.3808,-0.3819,-0.3829,-0.3827,-0.385,-0.3847,-0.3873,-0.3873,-0.3887,-0.3879,-0.388,-0.3888,-0.3891,-0.3885,-0.3884,-0.3886,-0.3888,-0.3901,-0.3901,-0.3902,-0.3902,0,-0.3738,-0.3757,-0.375,-0.377,-0.3774,-0.3766,-0.3782,-0.3778,-0.3792,-0.3789,-0.3789,-0.381,-0.3812,-0.3831,-0.3836,-0.3846,-0.3832,-0.3841,-0.3829,-0.3831,-0.3814,-0.3815,-0.3755,-0.3749,-0.3812,-0.3811,-0.381,0,-0.3708,-0.3701,-0.372,-0.372,-0.3727,-0.3727,-0.373,-0.3753,-0.3754,-0.3766,-0.3761,-0.3764,-0.3768,-0.3769,-0.3784,-0.3789,-0.3797,-0.3776,-0.3798,-0.3792,-0.3797,-0.3797,-0.3796,-0.3771,-0.377,-0.377,-0.3769,0,-0.3653,-0.3663,-0.3666,-0.3672,-0.3674,-0.368,-0.3687,-0.3686,-0.3712,-0.3712,-0.3714,-0.3717,-0.3723,-0.3726,-0.3733,-0.3741,-0.3759,-0.3762,-0.3759,-0.3752,-0.3745,-0.3748,-0.3815,-0.3763,-0.3764,-0.3764,-0.3765,-0.3765,-0.361,-0.3605,-0.3618,-0.362,-0.3628,-0.3635,-0.3632,-0.3646,-0.3648,-0.3655,-0.3669,-0.3668,-0.368,-0.3692,-0.3699,-0.3699,-0.371,-0.3704,-0.3703,-0.3701,-0.3698,-0.3745,-0.37,-0.37,-0.3701,-0.3701,-0.3701,0,-0.3556,-0.3566,-0.3568,-0.3578,-0.358,-0.3597,-0.3607,-0.3607,-0.3607,-0.3616,-0.362,-0.3622,-0.3625,-0.3642,-0.3647,-0.3644,-0.3652,-0.3644,-0.3645,-0.3646,-0.3688,-0.369,-0.3638,-0.3638,-0.3638,-0.3638,-0.3638,-0.3638,-0.3528,-0.3521,-0.3533,-0.353,-0.354,-0.354,-0.3544,-0.355,-0.3558,-0.356,-0.3563,-0.3574,-0.3586,-0.3593,-0.3597,-0.3601,-0.3602,-0.3591,-0.3599,-0.3637,-0.3643,-0.3649,-0.3651,-0.3591,-0.3591,-0.3557,-0.3557,-0.3556]}]]